TimeEDT,TemperatureF,Dew PointF,Humidity,Sea Level PressureIn,VisibilityMPH,Wind Direction,Wind SpeedMPH,Gust SpeedMPH,PrecipitationIn,Events,Conditions,WindDirDegrees,DateUTC
12:53 AM,50.0,43.0,77,30.04,10.0,SSE,4.6,-,N/A,,Overcast,150,2011-10-24 04:53:00
1:53 AM,54.0,42.1,64,30.04,10.0,SSW,4.6,-,N/A,,Mostly Cloudy,210,2011-10-24 05:53:00
2:53 AM,51.1,41.0,68,30.02,10.0,SSW,4.6,-,N/A,,Clear,200,2011-10-24 06:53:00
3:53 AM,51.1,41.0,68,30.01,10.0,SSW,4.6,-,N/A,,Clear,210,2011-10-24 07:53:00
4:53 AM,52.0,42.1,69,30.00,10.0,SSW,8.1,-,N/A,,Clear,210,2011-10-24 08:53:00
5:53 AM,52.0,42.1,69,30.00,10.0,SSW,6.9,-,N/A,,Clear,210,2011-10-24 09:53:00
6:53 AM,52.0,42.1,69,29.99,10.0,SSW,5.8,-,N/A,,Scattered Clouds,210,2011-10-24 10:53:00
7:53 AM,53.1,43.0,69,30.00,10.0,SSW,10.4,-,N/A,,Scattered Clouds,210,2011-10-24 11:53:00
8:53 AM,52.0,44.1,74,30.06,9.0,West,5.8,-,0.00,Rain,Light Rain,270,2011-10-24 12:53:00
9:28 AM,50.0,46.4,87,30.07,2.0,Calm,Calm,-,0.03,Rain,Rain,0,2011-10-24 13:28:00
9:36 AM,50.0,46.4,87,30.07,1.5,SW,4.6,-,0.05,Rain,Rain,230,2011-10-24 13:36:00
9:49 AM,48.2,46.4,93,30.04,2.5,SE,8.1,-,0.08,Rain,Rain,140,2011-10-24 13:49:00
9:53 AM,48.9,46.9,93,30.05,3.0,SSE,8.1,-,0.09,Rain,Light Rain,150,2011-10-24 13:53:00
10:53 AM,51.1,48.9,92,30.03,6.0,South,6.9,-,0.01,Rain,Light Rain,180,2011-10-24 14:53:00
11:24 AM,51.8,48.2,88,30.05,8.0,West,3.5,-,0.00,,Overcast,270,2011-10-24 15:24:00
11:37 AM,51.8,48.2,88,30.04,8.0,Calm,Calm,-,0.00,,Overcast,0,2011-10-24 15:37:00
11:50 AM,53.6,50.0,88,30.04,9.0,WSW,3.5,-,0.00,,Overcast,250,2011-10-24 15:50:00
11:53 AM,53.1,50.0,89,30.05,10.0,Variable,6.9,-,0.00,,Overcast,0,2011-10-24 15:53:00
12:23 PM,53.6,50.0,88,30.04,10.0,SW,5.8,-,N/A,,Overcast,230,2011-10-24 16:23:00
12:53 PM,54.0,50.0,86,30.04,10.0,WSW,5.8,-,N/A,,Overcast,250,2011-10-24 16:53:00
1:34 PM,55.4,50.0,82,30.03,10.0,WSW,8.1,-,N/A,,Overcast,250,2011-10-24 17:34:00
1:53 PM,55.9,51.1,84,30.03,10.0,WSW,9.2,-,N/A,,Overcast,240,2011-10-24 17:53:00
2:41 PM,60.8,51.8,72,30.02,10.0,WSW,13.8,18.4,0.01,,Scattered Clouds,240,2011-10-24 18:41:00
2:53 PM,59.0,50.0,72,30.03,10.0,West,10.4,18.4,0.01,,Mostly Cloudy,280,2011-10-24 18:53:00
3:00 PM,57.2,50.0,77,30.04,10.0,West,11.5,17.3,N/A,,Mostly Cloudy,270,2011-10-24 19:00:00
3:36 PM,60.8,50.0,68,30.04,10.0,NW,10.4,-,N/A,,Scattered Clouds,310,2011-10-24 19:36:00
3:53 PM,59.0,48.9,69,30.05,10.0,WNW,9.2,16.1,N/A,,Partly Cloudy,290,2011-10-24 19:53:00
4:53 PM,60.1,48.0,64,30.06,10.0,NW,9.2,-,N/A,,Clear,310,2011-10-24 20:53:00
5:53 PM,59.0,46.0,62,30.07,10.0,West,5.8,-,N/A,,Partly Cloudy,280,2011-10-24 21:53:00
6:53 PM,55.0,44.1,67,30.11,10.0,WNW,4.6,-,N/A,,Clear,300,2011-10-24 22:53:00
7:53 PM,46.0,41.0,83,30.13,10.0,Calm,Calm,-,N/A,,Clear,0,2011-10-24 23:53:00
8:53 PM,48.0,39.0,71,30.16,10.0,WNW,3.5,-,N/A,,Clear,290,2011-10-25 00:53:00
9:53 PM,39.0,37.0,93,30.19,10.0,Calm,Calm,-,N/A,,Clear,0,2011-10-25 01:53:00
11:53 PM,37.9,36.0,93,30.19,10.0,Calm,Calm,-,N/A,,Clear,0,2011-10-25 03:53:00